This demonstration page uses our WeatherBlox Daily Observations layout. Learn more.

Left ArrowRight Arrow

36.17497, -115.13722

Hourly Observations for October 4, 2019

Temp ( °F °C ) Dew Point ( °F °C ) Humidity (%) Winds ( mph kmh ) Pressure ( in mb ) Visibility ( mi km ) Precip ( " mm )
12:53 am 00:53 Clear 71 21.7 21 -6.1 15 15 SSW 12 19 29.85 1011 10 16 N/A
1:53 am 01:53 Clear 72 22.2 22 -5.6 15 15 SSW 12 19 29.85 1011 10 16 N/A
2:53 am 02:53 Clear 72 22.2 22 -5.6 15 15 S 14 22 29.83 1010 10 16 N/A
3:53 am 03:53 Clear 70 21.1 20 -6.7 15 15 S 14 22 29.83 1010 10 16 N/A
4:53 am 04:53 Clear 70 21.1 21 -6.1 16 16 SSW 16 26 29.84 1011 10 16 N/A
5:53 am 05:53 Clear 68 20 21 -6.1 17 17 S 13 20 29.86 1011 10 16 N/A
6:53 am 06:53 Sunny 69 20.6 20 -6.7 15 15 WSW 10 17 29.89 1012 10 16 N/A
7:53 am 07:53 Sunny 69 20.6 22 -5.6 17 17 NNW 5 7 29.92 1013 10 16 N/A
8:53 am 08:53 Sunny 71 21.7 22 -5.6 16 16 WNW 3 6 29.94 1014 10 16 N/A
9:53 am 09:53 Sunny 75 23.9 23 -5 14 14 N 6 9 29.96 1015 10 16 N/A
10:53 am 10:53 Sunny 77 25 22 -5.6 13 13 N N/A 29.97 1015 10 16 N/A
11:53 am 11:53 Sunny 77 25 19 -7.2 11 11 N N/A 29.97 1015 10 16 N/A
12:53 pm 12:53 Sunny 81 27.2 19 -7.2 10 10 N N/A 29.96 1015 10 16 N/A
1:53 pm 13:53 Sunny 83 28.3 16 -8.9 8 8 N N/A 29.94 1014 10 16 N/A
2:53 pm 14:53 Sunny 83 28.3 16 -8.9 8 8 ESE 6 9 29.93 1014 10 16 N/A
3:53 pm 15:53 Sunny 84 28.9 15 -9.4 7 7 W 3 6 29.93 1014 10 16 N/A
4:53 pm 16:53 Sunny 84 28.9 16 -8.9 8 8 WSW 6 9 29.92 1013 10 16 N/A
5:53 pm 17:53 Sunny 84 28.9 16 -8.9 8 8 SW 3 6 29.92 1013 10 16 N/A
6:53 pm 18:53 Clear 81 27.2 20 -6.7 10 10 SSW 3 6 29.93 1014 10 16 N/A
7:53 pm 19:53 Clear 76 24.4 22 -5.6 13 13 W 5 7 29.96 1015 10 16 N/A
8:53 pm 20:53 Clear 72 22.2 24 -4.4 17 17 NNW 5 7 29.99 1016 10 16 N/A
9:53 pm 21:53 Clear 73 22.8 16 -8.9 11 11 NNW 10 17 29.99 1016 10 16 N/A
10:53 pm 22:53 Clear 73 22.8 11 -11.7 9 9 NNW 12 19 30.00 1016 10 16 N/A
11:53 pm 23:53 Clear 72 22.2 12 -11.1 10 10 NW 15 24 30.01 1016 10 16 N/A

Powered by AerisWeather